User: anonymous   Login
Location: Unspecified
(0.0000°N, 0.0000°E)
Time: 01:47:51
(UTC+00:00)
Language:

AMOS 1 - Orbit

View from above orbital plane
View from above orbital plane
View from above satellite
View from above satellite

Ground track
Ground track

The orbit data is extracted from the following two-line orbital elements,

1 23865U 96030B   17326.04907108 -.00000142  00000-0  00000+0 0  9997
2 23865   7.3285  53.1394 0010573 156.2610 208.0262  0.97118449 78180
Epoch (UTC): 22 November 2017 01:10:39
Eccentricity: 0.0010573
inclination: 7.3285°
perigee height: 36648 km
apogee height: 36739 km
right ascension of ascending node: 53.1394°
argument of perigee: 156.2610°
revolutions per day: 0.97118449
mean anomaly at epoch: 208.0262°
orbit number at epoch: 7818

The dashed part of the orbit path shows where the satellite is in the earth's shadow,  

DLR